Regional Weather Roundup
Issued by NWS

Home | Current Version | Previous Version | Text Only | Print | Product List | Glossary On
Versions: 1 2 3 4 5 6 7 8 9 10 11 12 13 14 15 16 17 18 19 20 21 22 23 24 25 26 27 28 29 30 31 32 33 34 35 36 37 38 39 40 41 42 43 44 45 46 47 48 49 50
000
ASHW40 PHFO 181143
RWRHI

WEATHER ROUNDUP FOR HAWAII
NATIONAL WEATHER SERVICE HONOLULU HI
100 AM HST THU DEC 18 2014

THIS IS AN AUTOMATED REPORT THAT HAS NOT BEEN QUALITY CONTROLLED.

NOTE..."FAIR" INDICATES FEW OR NO CLOUDS BELOW 12,000 FEET WITH NO
SIGNIFICANT WEATHER AND/OR OBSTRUCTIONS TO VISIBILITY.

* - THESE SITES REPORT LIMITED FIELDS

HIZ001>004-181200-
KAUAI-NIIHAU-

CITY           SKY/WX    TMP DP  RH WIND       PRES   REMARKS
LIHUE APT      MOCLDY    75  68  78 E17G25    30.19F
PORT ALLEN*      N/A     73 N/A N/A E16G22      N/A
POIPU*           N/A     73 N/A N/A NE9G18      N/A
PRINCEVILLE*     N/A     70 N/A N/A MISG        N/A
KOKOLE POINT*    N/A     70 N/A N/A MISG        N/A
MOLOAA DAIRY*  NOT AVBL
WAIMEA HTS*      N/A     72  61  68 E6G13       N/A
PUU OPAE*        N/A     64  57  77 CALM        N/A
PUU LUA*       NOT AVBL
MAKAHA RIDGE*  NOT AVBL
$$

HIZ005>011-181200-
OAHU-

CITY           SKY/WX    TMP DP  RH WIND       PRES   REMARKS
HONOLULU       PTCLDY    75  66  73 NE14      30.16F
KALAELOA       CLEAR     69  65  86 CALM      30.18S
KANEOHE MCB    PTCLDY    75  67  76 E17G23    30.18F
WHEELER FIELD  DRIZZLE   68  64  88 CALM      30.17F
BELLOWS*         N/A    N/A N/A N/A NE18G24     N/A
KAHUKU*          N/A    N/A N/A N/A E10G18      N/A
WHEELER*       NOT AVBL
WAIANAE HARBOR NOT AVBL
DILLINGHAM*      N/A     64  63  94 CALM        N/A
KAHUKU TRN*      N/A     72  66  83 E9G18       N/A
KAWAILOA*        N/A     70  64  83 E12G18      N/A
KII*             N/A     75  68  78 E18G24      N/A
MAKUA RANGE*     N/A     73  63  68 NE6G18      N/A
OAHU FOREST NW   N/A     64 -13   4 CALM        N/A
SCHOFIELD BRK*   N/A     64  59  82 MISG        N/A
SCHOFIELD S*   NOT AVBL
WAIANAE VLY*     N/A     70  63  78 W5G12       N/A
KUAOKALA*        N/A    N/A N/A N/A CALM        N/A
HONOULIUULI*   NOT AVBL
MOKUOLOE IS*     N/A    N/A N/A N/A MISG        N/A
PALEHUA*         N/A     75  66  73 CALM        N/A
WAIAWA PHB*    NOT AVBL
$$

HIZ012>013-181200-
MOLOKAI-

CITY           SKY/WX    TMP DP  RH WIND       PRES   REMARKS
MOLOKAI AIRPT  PTCLDY    72  66  81 NE12G21   30.17S
KALAUPAPA      NOT AVBL
MAKAPULAPAI*     N/A     73  66  78 E18G26      N/A
MOLOKAI 1*       N/A     63  59  88 NE2G15      N/A
PUU ALII*        N/A     57  57  99 E3G14       N/A
$$

HIZ016-181200-
KAHOOLAWE-

CITY           SKY/WX    TMP DP  RH WIND       PRES   REMARKS
KAHOOLAWE*       N/A     68 N/A N/A E15G24      N/A
HAKIOAWA*        N/A     68  66  92 MISG      30.56F
HONOKANAIA*      N/A     73  63  71 N9G21     30.17R
KANELOA*         N/A     72  64  78 NE14G32   29.37S
KEALIALALO*    NOT AVBL
LUA MAKIKA*    NOT AVBL
$$

HIZ014>015-181200-
LANAI-

CITY           SKY/WX    TMP DP  RH WIND       PRES   REMARKS
LANAI CITY     FAIR      68  65  90 E12       30.20F
LANAI 1*         N/A     66  66 100 NE18G28     N/A
$$

HIZ017>028-181200-
MAUI-

CITY           SKY/WX    TMP DP  RH WIND       PRES   REMARKS
KAHULUI        CLEAR     72  67  84 NE14G21   30.17R
KAPALUA-W MAUI NOT AVBL
HANA AIRPORT   CLOUDY    73  66  78 E7        30.21S
HANA*            N/A     75 N/A N/A E8          N/A
HALEAKALA SUMM   N/A     46  14  27 E21         N/A
MAALAEA BAY*   NOT AVBL
HALEAKALA*     NOT AVBL
KAUPO GAP*       N/A     57  52  82 NW2G10      N/A
KULA 1*          N/A    N/A N/A N/A E3G9        N/A
$$

HIZ023>026-181200-
BIG ISLAND OF HAWAII COAST AND LOWER SLOPES-

CITY           SKY/WX    TMP DP  RH WIND       PRES   REMARKS
KAILUA KONA    PTCLDY    73  63  70 CALM      30.11F
HILO           LGT RAIN  71  68  90 W7        30.16F
HONOKAA*       NOT AVBL
KAWAIHAE MWT*    N/A     75 N/A N/A E2G8        N/A
KAWAIHAE*        N/A     75 N/A N/A NE2         N/A
SOUTH POINT*     N/A     68 N/A N/A NE16G23     N/A
UPOLU AIRPORT*   N/A    N/A N/A N/A NE21G29     N/A
KAMUELA*       LGT RAIN  61  61 100 E8        30.23F
HAKALAU*         N/A     45  43  93 SW5         N/A
KALOKO-HONOKO*   N/A     70  59  68 NE2       30.11S
PALI 2*          N/A     63  59  88 N12G18      N/A
KEALAKOMO*       N/A     75  68  78 NE9G18      N/A
KAUPULEHU*       N/A     66  57  72 SE7         N/A
KAPAPALA*        N/A     65  57  75 CALM        N/A
LOWER KAHUKU*    N/A     59  57  94 N2G10       N/A
PUHE CS*       NOT AVBL
PUHO CS*         N/A     70  58  66 E3          N/A
PTA KEAMUKU*     N/A     57  54  88 CALM        N/A
WAIKOLOA*        N/A     70  57  64 E9          N/A
$$

HIZ027>028-181200-
BIG ISLAND OF HAWAII INTERIOR AND SUMMMITS-

CITY           SKY/WX    TMP DP  RH WIND       PRES   REMARKS
BRADSHAW FIELD CLOUDY    46  42  85 SE6       30.44F
MK VISITOR CEN NOT AVBL
MAUNA KEA*       N/A     37 -13  11 SE3         N/A
MAUNA LOA*       N/A     41 -11  10 MISG        N/A
MAUNA LOA 1*   NOT AVBL
PTA KIPUKA*      N/A     46  43  87 E3          N/A
PTA RANGE 17*    N/A     54  48  82 E10G17      N/A
PTA WEST*        N/A     54  46  76 SE9         N/A
NENE CABIN*      N/A    N/A N/A N/A NE5         N/A
AHUMOA*          N/A     45  34  65 NE3G10      N/A
PTA PORTABLE*  NOT AVBL
PUU MALI*      NOT AVBL
$$

HIC003-181200-
NORTHWEST ISLANDS-

CITY           SKY/WX    TMP DP  RH WIND       PRES   REMARKS
MIDWAY ISLAND  PTCLDY    73  68  83 S15       30.16F
MIDWAY NOS*    NOT AVBL
FRENCH FRIGATE NOT AVBL
$$

PHZ110>124-180-181200-
BUOY REPORTS

STATION/POSITION TIME  TEMP    WIND        PRES    WAVE   SWELL
                       AIR SEA DIR/SP/G            HT/PER HT/DIR
                 (UTC) (F)     (DEG/KT/KT) (MB)    (FT/S) (FT/D)
BUOY 51001       NOT AVBL
BUOY 51101       1100   76 77   90/ 16/ 21 1022.5F   7/13
BUOY 51100       1100   73 75   70/ 14/ 17 1023.4
BUOY 51003       1100   78 79   70/ 17/ 21 1019.4F   7/ 9   5
BUOY 51004       1004   77 78   70/ 17/ 21 1019.0R   9/ 8   5/ 20
BARBERS PT BUOY  NOT AVBL
WAIMEA BAY BUOY  1100      77                N/A     5/11   2/ 10
KAILUA BAY BUOY  1100      77                N/A     8/ 7   2/ 10
LANAI BUOY       1100      78                N/A     3/10   2/200
BARBERS PT 2     1100      78                N/A     4/ 8   2/210
PAUWELA MAUI     1100      77                N/A     7/ 7   3/360
HILO             1100      78                N/A     7/ 8   3/ 10
KANEOHE BAY BUOY 1100      77                N/A     7/ 8   2/360
HANALEI KAUAI    NOT AVBL
KAHULUI HARBOR   1100   75 76   40/ 11/ 18 1021.3F
HONOLULU HARBOR  1100   75      30/  2/  3 1021.5F
KILO NALU        NOT AVBL
HILO HARBOR      1100   72     270/  4/  5 1021.0F
MOKUOLOE         1100   74 74   90/  9/ 12 1022.0F
NAWILIWILI       1100      76                N/A
WHOTS BUOY       NOT AVBL
BUOY 51028       NOT AVBL
$$

......................KEY........................................
  SKY/WX - SKY CONDITIONS/PRESENT WEATHER
  TMP    - TEMPERATURE IN FAHRENHEIT
  DWPT   - DEWPOINT IN FAHRENHEIT
  RH     - RELATIVE HUMIDITY IN PERCENT
  WIND   - DIRECTION AND SPEED /MPH FOR ISLANDS...KTS FOR BUOYS/
  PRES   - MEAN SEA LEVEL PRESSURE IN INCHES OF HG
  VSB    - VISIBILITY IN MILES
  HX     - HEAT INDEX
  WCI    - WIND CHILL INDEX
  VRB    - VARIABLE WIND DIRECTION
  N/A    - NOT AVAILABLE


USA.gov is the U.S. government's official web portal to all federal, state and local government web resources and services.